Content
SEND FEEDBACK

Daily
Averages
Monthly
Summary
United States of America

CHELSEA, MICHIGAN


Home > North America > United States > Michigan
Elevation: 900 feet     Latitude: 42 19N     Longitude: 084 01W

WEATHER
 
SELECT A DAY
Number of Records: 203,415;   Date Range: 1/1/95 - 7/29/14
 
SHARE

PRINT THIS DATA

[ ← Previous Day ]
WEATHER ALMANAC - FEBRUARY 12, 2014
[ Next Day → ]
[ °C ]   °F
Weather ElementAverageHighLow
Temperature1.1 °F16 °F (3:53 pm)-18.9 °F (5:53 am)
Dewpoint-4.8 °F7 °F (8:53 pm)-24 °F (5:53 am)
Humidity77.3 %92 % (6:33 am)59 % (3:53 pm)
Barometer30.32 in30.48 in (1:53 am)30.11 in (11:53 pm)
Wind Speed1.7 mph9.2 mph (12:53 pm)
Weather ElementAverage
Visibility6.1 mi
Wind DirectionENE (64.9 °)

Weather ElementTotal
Precipitation---
Heating Degree Days66.5 (Base 65)
Averaged from 35 records on February 12, 2014
WEATHER CONDITIONS BREAKOUT
WIND DIRECTION BREAKOUT
WEATHER BY HOUR - FEBRUARY 12, 2014
[ °C ]   °F
Local TimeTemperatureDewpointHumidityBarometerVisibilityWind DirectionWind SpeedGust SpeedPrecipitationEventsConditions
1:53 AM-13.0 °F-18.9 °F75 %30.48 in10.0 miCalmClear
2:53 AM-13.0 °F-18.0 °F78 %30.46 in10.0 miCalmClear
3:53 AM-15.0 °F-20.9 °F75 %30.44 in10.0 miCalmClear
4:53 AM-17.0 °F-22.0 °F78 %30.45 in10.0 miCalmClear
5:31 AM-16.6 °F-20.2 °F84 %30.38 in10.0 miCalmPartly Cloudy
5:53 AM-18.9 °F-24.0 °F78 %30.45 in10.0 miWNW (290°)3.5 mphMostly Cloudy
6:26 AM-13.0 °F-18.4 °F77 %30.37 in1.0 miCalmHaze
6:33 AM-14.8 °F-16.6 °F92 %30.37 in0.2 miCalmFogLight Freezing Fog
6:53 AM-11.0 °F-15.0 °F83 %30.44 in0.2 miCalmFogLight Freezing Fog
7:53 AM-9.9 °F-11.9 °F91 %30.41 in0.2 miCalmFogLight Freezing Fog
8:13 AM-11.2 °F-13.0 °F92 %30.33 in3.0 miCalmHaze
8:16 AM-11.2 °F-13.0 °F92 %30.33 in2.0 miCalmHaze
8:37 AM-7.6 °F-11.2 °F84 %30.32 in2.0 miCalmHaze
8:53 AM-2.9 °F-8.0 °F79 %30.40 in1.8 miCalmHaze
9:34 AM1.4 °F-2.2 °F85 %30.32 in1.0 miCalmOvercast
9:44 AM1.4 °F-0.4 °F92 %30.32 in0.8 miCalmOvercast
9:48 AM1.4 °F-0.4 °F92 %30.32 in1.5 miCalmOvercast
9:53 AM1.9 °F-0.9 °F88 %30.40 in2.5 miCalmOvercast
10:22 AM3.2 °F1.4 °F92 %30.32 in1.2 miCalmOvercast
10:33 AM6.8 °F3.2 °F85 %30.33 in1.8 miSouth (180°)3.5 mphPartly Cloudy
10:35 AM6.8 °F3.2 °F85 %30.33 in3.0 miSSE (160°)3.5 mphPartly Cloudy
10:53 AM7.0 °F1.9 °F80 %30.38 in3.0 miSSE (160°)3.5 mphPartly Cloudy
11:53 AM10.9 °F3.9 °F73 %30.35 in10.0 miSSE (160°)3.5 mphClear
12:53 PM12.9 °F3.9 °F67 %30.32 in10.0 miSSW (210°)9.2 mphClear
1:53 PM14.0 °F3.9 °F64 %30.26 in10.0 miSSW (200°)6.9 mphClear
2:53 PM15.1 °F3.9 °F61 %30.23 in10.0 miSSW (200°)8.1 mphClear
3:53 PM16.0 °F3.9 °F59 %30.21 in10.0 miSSW (210°)4.6 mphClear
4:53 PM16.0 °F3.9 °F59 %30.21 in10.0 miSSW (210°)5.8 mphClear
5:53 PM15.1 °F3.0 °F59 %30.20 in10.0 miCalmClear
6:53 PM9.0 °F1.9 °F73 %30.19 in9.0 miCalmClear
7:53 PM12.0 °F3.9 °F70 %30.19 in9.0 miCalmOvercast
8:53 PM15.1 °F7.0 °F70 %30.19 in9.0 miCalmOvercast
9:53 PM16.0 °F6.1 °F65 %30.17 in10.0 miCalmOvercast
10:53 PM16.0 °F6.1 °F65 %30.14 in10.0 miSSE (150°)3.5 mphOvercast
11:53 PM16.0 °F6.1 °F65 %30.11 in10.0 miSE (140°)3.5 mphOvercast
Hourly data recorded from KARB, located miles away from Chelsea, Michigan







STORIES FROM OUR PARTNERS